SCP
0 0 1 1 0 0 0 -0 0 0 0 0 0 0 0 0 0 0 0 0 0 0 0 0 -0 -0 -0 -0 -0 -0 -0 -0 -0 0 -0 -0 -0 -0 -0 -0 -0 -0 -0 -0 -0 -0 -0 -0 -0
0 0 1 1 0 0 0 0 0 0 0 0 0 0 0 0 0 0 0 0 0 0 0 0 0 0 0 0 0 0 -0 0 0 0 -0 0 -0 -0 -0 -0 -0 -0 -0 -0 -0 -0 -0 -0 -0
0 0 1 0 0 0 0 -0 0 0 0 0 0 0 0 0 0 0 0 0 0 0 0 0 0 0 0 0 0 0 -0 0 -0 -0 -0 0 0 -0 -0 -0 -0 -0 -0 -0 -0 -0 -0 -0 -0
0 0 0 0 0 0 0 -0 0 0 0 0 0 0 0 1 0 0 0 0 0 0 0 0 0 0 0 0 -0 -0 -0 0 -0 -0 -0 -0 -0 -0 -0 -0 -0 -0 -0 -0 -0 -0 -0 -0 -0
0 0 0 0 0 0 0 -0 0 0 0 0 0 0 0 1 0 0 0 0 0 0 0 0 0 0 0 0 -0 0 0 -0 -0 -0 -0 0 0 -0 -0 -0 -0 -0 -0 -0 -0 -0 -0 -0 -0
0 0 0 0 0 0 0 0 0 0 0 0 0 0 0 0 0 0 0 1 0 0 0 0 0 0 0 0 0 0 0 0 -0 -0 -0 -0 0 0 0 -0 -0 -0 -0 -0 -0 -0 -0 0 0
0 0 0 0 0 0 0 0 0 0 0 0 0 0 0 0 0 1 1 1 0 0 0 0 0 0 0 0 0 0 0 0 -0 -0 -0 -0 0 0 0 0 0 0 0 0 0 0 0 0 0
0 0 0 0 0 0 0 0 0 0 0 0 0 0 0 0 0 1 1 1 0 0 0 0 0 0 0 0 0 0 0 0 0 0 0 0 -0 -0 0 0 0 -0 -0 -0 -0 0 0 0 0
0 0 0 0 0 0 0 0 0 0 0 0 0 0 0 0 0 0 1 0 0 0 0 0 0 0 0 0 0 0 0 0 0 0 0 0 0 0 0 -0 -0 0 0 0 0 0 0 0 0
0 0 0 0 0 0 0 0 0 0 0 0 0 0 0 0 0 1 0 0 0 0 0 0 0 0 0 0 0 0 0 0 0 0 -0 -0 -0 0 0 0 0 0 0 0 0 0 0 0 0
0 0 0 0 0 0 0 0 0 0 0 0 0 0 0 0 0 0 0 0 0 0 0 0 0 0 0 0 0 0 0 0 0 0 -0 0 0 0 0 0 0 0 0 0 0 0 0 0 0
0 0 0 0 0 0 0 0 0 0 0 0 0 1 0 0 0 0 0 0 0 0 0 0 0 0 0 0 0 0 0 0 0 0 0 0 0 0 0 0 0 0 0 0 0 0 0 0 0
0 0 0 0 0 0 0 0 0 0 0 0 0 1 0 0 0 0 0 0 0 0 0 0 0 0 0 0 0 0 0 0 0 0 0 0 0 0 0 0 0 0 0 0 0 0 0 0 0
0 0 0 0 0 0 0 0 0 0 0 0 0 0 0 0 0 0 0 0 0 0 0 0 0 0 0 0 0 0 0 0 0 0 0 0 0 0 0 0 0 0 0 0 0 0 0 0 0
0 0 0 0 0 0 0 0 0 0 0 0 0 0 0 0 0 0 0 0 0 0 0 0 0 0 0 0 0 0 0 0 0 0 0 0 0 0 0 0 0 0 0 0 0 0 0 0 0
0 0 0 0 0 0 0 0 0 0 0 0 0 0 0 0 0 0 0 0 0 0 0 0 0 0 0 0 0 0 0 0 0 0 0 0 0 0 0 0 0 0 0 0 0 0 0 0 0
-0 -0 0 0 0 0 0 0 0 0 0 0 0 0 0 0 0 0 0 0 0 0 0 0 0 0 0 0 0 0 0 0 0 0 0 0 0 0 0 0 0 0 0 0 0 0 0 0 0
0 0 0 0 0 0 0 0 0 0 0 0 0 0 0 0 0 0 0 0 0 0 0 0 0 0 0 0 0 0 0 0 0 0 0 0 0 0 0 0 0 0 0 0 0 0 0 0 0
0 0 0 0 0 0 0 0 0 0 0 0 0 0 0 0 0 0 0 0 0 0 0 0 0 0 0 0 0 0 0 0 0 0 0 0 0 0 0 0 0 0 0 0 0 0 0 0 0
0 0 0 0 0 0 0 0 0 0 0 0 0 0 0 0 0 0 0 0 0 0 0 0 0 0 0 0 0 0 0 0 0 0 0 0 0 0 0 0 0 0 0 0 0 0 0 0 0
0 0 0 0 0 0 0 0 0 0 0 0 0 0 0 0 0 0 0 0 0 0 0 0 0 0 0 0 0 0 0 0 0 0 0 0 0 0 0 0 0 0 0 0 0 0 0 0 0
0 0 0 0 0 0 0 0 0 0 0 0 0 0 0 0 0 0 0 0 0 0 0 0 0 0 0 0 0 0 0 0 0 0 0 0 0 0 0 0 0 0 0 0 0 0 0 0 0
0 0 0 0 0 0 0 0 0 0 0 0 0 0 0 0 0 0 0 0 0 0 0 0 0 0 0 0 0 0 0 0 0 0 0 0 0 0 0 0 0 0 0 0 0 0 0 0 0
0 0 0 0 0 0 0 0 0 0 0 0 0 0 0 0 0 0 0 0 0 0 0 0 0 0 0 0 0 0 0 0 0 0 0 0 0 0 0 0 0 0 0 0 0 0 0 0 0
0 0 0 0 0 0 0 0 0 0 0 0 0 0 0 0 0 0 0 0 0 0 0 0 0 0 0 0 0 0 0 0 0 0 0 0 0 0 0 0 0 0 0 0 0 0 0 0 0
0 0 0 0 0 0 0 0 0 0 0 0 0 0 0 0 0 0 0 0 0 0 0 0 0 0 0 0 0 0 0 0 0 0 0 0 0 0 0 0 0 0 0 0 0 0 0 0 0
0 0 0 0 0 0 0 0 0 0 0 0 0 0 0 0 0 0 0 0 0 0 0 0 0 0 0 0 0 0 0 0 0 0 0 0 0 0 0 0 0 0 0 0 0 0 0 0 0
0 0 0 0 0 0 0 0 0 0 0 0 0 0 0 0 0 0 0 0 0 0 0 0 0 0 0 0 0 0 0 0 0 0 0 0 0 0 0 0 0 0 0 0 0 0 0 0 0
0 0 0 0 0 0 0 0 0 0 0 0 0 0 0 0 0 0 0 0 0 0 0 0 0 0 0 0 0 0 0 0 0 0 0 0 0 0 0 0 0 0 0 0 0 0 0 0 0
0 0 0 0 0 0 0 0 0 0 0 0 0 0 0 0 0 0 0 0 0 0 0 0 0 0 0 0 0 0 0 0 0 0 0 0 0 0 0 0 0 0 0 0 0 0 0 0 0
Wind_Speed_500mb
9 11 7 10 7 10 23 24 26 21 14 28 36 8 8 11 10 13 45 23 40 40 56 49 40 35 33 32 31 29 31 37 38 37 36 36 34 37 41 38 28 21 18 12 14 19 26 28 29
11 8 9 9 10 19 19 31 37 21 14 17 25 17 22 6 17 35 42 33 41 46 56 49 39 33 33 34 32 33 36 41 39 36 35 34 32 32 31 26 17 12 6 8 12 20 25 27 29
27 4 4 7 16 27 19 30 32 27 18 8 14 12 27 14 21 55 29 49 41 46 53 47 38 34 34 37 36 38 39 40 40 35 35 31 27 24 20 19 16 12 13 13 16 20 23 24 25
14 9 11 12 28 28 31 34 11 17 33 28 29 13 12 23 21 24 59 55 39 44 49 45 38 36 38 41 41 40 41 42 39 36 31 28 28 25 18 15 9 4 8 14 16 18 19 20 21
14 11 2 14 33 26 33 46 8 17 26 24 29 3 22 26 26 43 57 49 47 47 43 44 39 39 43 44 43 41 41 40 36 36 30 23 17 16 13 10 11 8 11 18 19 18 17 18 17
17 7 6 31 28 35 29 52 10 23 14 42 38 32 14 12 30 53 52 48 47 52 45 45 42 44 44 44 42 41 40 39 36 32 25 18 15 14 16 18 14 15 11 18 18 17 15 14 14
13 9 22 27 29 38 39 20 18 21 8 10 17 7 16 10 43 55 52 51 52 48 49 49 48 46 44 41 42 40 37 41 34 24 18 13 12 15 17 21 19 12 17 17 16 14 12 10 11
31 7 32 29 29 40 44 37 37 25 14 26 17 9 10 43 50 54 59 56 51 51 51 52 53 50 47 43 43 40 39 35 26 20 15 13 13 14 16 19 15 20 20 17 14 12 9 8 8
31 17 19 35 47 35 44 16 43 13 14 14 11 14 18 40 57 62 67 50 46 35 47 53 55 52 48 46 41 38 33 28 23 19 14 11 13 15 15 16 15 18 16 14 11 8 6 5 6
17 20 36 15 38 37 53 16 28 13 18 17 22 20 23 43 65 72 75 63 55 52 48 51 54 51 47 47 44 39 35 29 25 19 16 12 11 12 15 14 15 14 12 9 6 4 3 3 6
27 34 10 40 58 39 51 47 54 10 12 21 36 41 52 54 64 66 72 67 66 61 54 49 55 49 46 45 46 42 37 32 26 21 24 22 20 17 14 11 13 13 10 8 5 2 0 4 2
22 49 41 26 21 17 20 37 44 21 8 12 14 44 36 33 61 70 67 71 65 64 64 48 59 49 46 41 46 41 40 33 26 23 28 34 27 20 13 5 10 11 11 4 3 6 7 6 4
53 33 62 33 33 20 17 27 25 33 23 8 3 43 37 48 55 58 60 65 68 64 62 50 57 59 47 44 45 43 35 32 21 22 24 26 21 23 18 10 5 5 7 7 4 5 8 7 7
28 50 52 50 30 33 15 21 15 21 36 5 6 30 34 46 53 52 53 57 74 65 75 68 56 52 58 48 49 43 36 30 24 22 24 24 19 23 25 23 18 14 13 7 7 6 7 6 9
45 25 24 44 44 15 23 25 11 19 22 53 2 23 32 36 44 59 55 58 66 64 64 71 67 61 53 51 48 39 37 30 27 25 25 27 22 20 19 17 20 16 12 12 6 3 3 4 4
22 20 42 33 36 21 32 30 21 20 26 28 36 23 34 37 42 49 54 44 59 57 58 59 71 67 55 43 50 38 36 31 28 25 28 27 24 19 18 18 12 13 11 9 5 2 4 9 11
19 13 13 36 47 19 22 14 6 18 19 24 32 34 43 40 37 45 43 49 56 57 57 54 52 53 49 38 44 43 29 37 30 31 26 27 23 17 13 16 15 11 10 5 4 4 9 9 10
11 15 24 23 40 32 37 18 8 7 7 39 33 35 38 33 32 40 41 33 42 45 47 51 49 46 45 38 27 47 37 41 34 32 28 25 24 20 17 17 14 11 9 7 6 5 4 6 8
19 15 11 4 11 34 39 21 13 17 10 18 35 24 28 37 32 37 43 46 35 36 35 41 48 46 44 49 39 37 42 38 38 35 31 28 28 24 23 20 18 15 10 9 10 9 8 8 10
27 22 9 14 18 12 20 25 17 16 8 21 24 27 23 21 28 30 38 35 40 40 38 40 43 43 46 53 47 38 41 40 38 37 35 35 25 25 24 22 21 15 15 14 12 13 13 13 13
21 28 21 11 20 23 20 8 20 6 16 14 25 36 24 24 26 26 26 32 34 38 38 44 39 35 39 40 48 47 43 41 41 42 38 35 31 26 24 21 18 18 18 17 17 17 18 19 20
17 29 28 35 11 8 7 10 17 14 13 9 23 23 18 16 26 28 27 23 27 32 30 42 39 35 37 40 44 45 47 40 38 26 34 33 25 23 21 21 22 24 23 25 24 23 26 27 30
5 34 32 38 17 18 10 9 4 31 17 18 24 26 8 10 17 29 26 24 26 24 22 21 29 35 38 38 33 28 32 34 23 23 25 32 33 29 28 28 30 30 31 32 32 33 36 36 38
32 29 26 11 10 6 14 5 5 8 12 22 24 31 19 16 16 14 29 40 28 21 16 16 21 23 31 33 38 32 28 33 35 34 36 32 35 35 29 32 39 41 39 30 39 40 41 41 41
27 7 7 5 5 6 23 13 9 13 16 17 32 34 27 27 22 18 13 17 24 28 32 28 26 24 20 20 26 33 26 27 31 38 37 28 29 29 24 22 36 40 43 41 44 47 40 40 39
17 10 3 9 8 8 9 6 6 13 19 23 36 36 25 31 27 22 18 17 19 21 24 28 22 20 23 20 22 33 31 34 36 36 35 39 39 39 41 41 40 38 36 36 33 34 36 37 36
6 5 7 9 7 9 8 9 10 11 12 23 25 25 21 28 33 25 22 24 11 17 23 18 20 21 18 25 35 26 43 64 58 52 33 33 34 35 35 32 33 29 28 30 31 32 34 35 31
11 4 6 7 7 8 5 9 7 10 11 11 19 19 20 18 23 25 26 26 18 20 13 10 13 16 17 17 16 17 20 24 27 32 30 25 24 27 31 30 32 30 28 31 31 30 29 28 26
9 7 8 6 4 5 7 6 9 12 11 11 18 17 19 18 16 15 10 9 8 9 11 7 6 12 15 12 13 16 19 24 23 24 27 26 25 24 24 22 24 22 21 24 23 21 19 16 12
11 5 11 4 7 3 6 7 9 12 17 26 26 22 17 13 9 10 10 8 7 5 5 8 14 10 1 6 10 14 19 23 22 25 28 23 22 21 17 15 14 18 17 19 14 11 10 7 8
Wind_Direction_500mb
30 91 101 221 231 235 226 236 264 273 269 230 219 297 278 284 356 127 141 162 186 174 170 164 164 163 161 160 155 151 145 142 134 124 125 129 127 121 126 130 125 117 100 64 54 80 103 99 97
330 182 247 252 235 217 228 234 240 248 253 257 215 223 270 87 96 132 161 172 190 171 165 162 163 163 161 159 155 150 149 145 137 126 121 133 133 139 130 130 128 120 106 84 93 95 97 98 95
242 351 244 224 235 233 223 240 242 216 125 215 187 193 241 80 116 145 165 179 181 167 165 162 162 162 161 159 153 151 151 152 143 130 122 128 134 144 136 122 115 97 91 116 116 106 98 97 96
233 242 260 245 236 227 240 242 315 191 178 180 188 174 116 102 133 164 153 179 168 167 168 162 161 162 160 157 155 152 150 149 146 136 130 125 128 130 135 137 143 124 112 125 118 109 103 99 96
198 136 227 244 242 240 236 250 265 274 171 186 219 177 123 121 153 140 172 169 170 167 164 162 159 159 156 157 155 153 153 152 153 145 140 138 141 145 153 159 156 143 153 139 126 116 103 99 93
165 154 209 240 242 245 244 245 230 264 242 194 204 163 184 170 149 145 175 164 172 171 166 161 158 159 157 158 157 158 157 158 154 152 151 155 166 182 188 167 155 160 151 134 129 122 112 100 90
231 159 214 232 248 222 238 220 229 248 247 297 167 229 144 228 143 163 166 167 173 174 171 162 159 159 161 162 161 161 161 159 159 163 166 174 178 178 182 179 161 166 146 134 128 123 113 94 80
202 220 229 214 251 249 230 204 222 224 229 220 263 94 141 217 169 163 158 165 174 178 172 164 162 161 164 161 158 158 158 165 171 173 177 181 178 178 166 163 161 137 137 137 135 130 112 91 72
203 223 228 205 224 257 242 209 218 202 231 154 184 124 63 184 163 155 160 160 168 166 172 167 165 164 168 169 167 167 171 176 178 177 174 177 164 152 170 157 146 142 144 143 137 125 104 83 66
215 212 224 194 213 240 269 263 193 178 232 151 112 128 168 193 158 165 168 166 171 170 171 171 166 165 171 176 175 177 175 176 177 178 166 146 136 136 149 163 163 155 149 144 139 124 99 66 50
200 237 198 219 226 240 271 287 239 177 219 205 170 158 157 172 168 173 173 169 168 166 172 177 163 168 174 180 179 179 178 180 178 174 160 140 172 184 190 194 171 168 159 153 142 114 166 356 228
224 230 219 213 193 222 240 276 261 168 158 354 238 183 172 190 180 178 179 178 172 172 170 179 165 173 183 181 185 184 185 187 184 173 170 173 196 206 178 132 166 159 159 121 31 339 315 309 327
235 250 212 221 192 201 294 264 269 204 218 300 244 175 187 188 186 181 181 182 177 179 169 173 173 173 178 191 187 188 187 184 191 185 183 183 183 158 162 163 188 154 168 190 246 281 321 323 329
251 224 228 188 200 211 241 258 289 238 210 152 201 196 178 187 187 183 173 185 186 179 177 170 175 180 185 194 185 187 189 184 194 190 182 167 177 167 172 186 193 188 223 216 222 253 308 335 329
257 225 227 184 155 172 185 259 228 267 198 216 273 223 204 204 192 184 181 189 191 198 191 182 176 173 192 198 186 188 186 186 199 194 182 171 188 178 173 183 185 195 208 213 236 272 333 28 284
231 254 207 196 170 177 156 230 235 216 179 195 204 253 220 196 192 190 184 188 193 193 192 193 185 186 189 185 184 182 192 192 200 202 193 186 189 187 178 183 184 189 217 209 192 232 249 286 313
208 269 205 175 175 155 160 182 323 171 193 182 184 253 216 191 185 181 192 199 197 199 191 190 194 192 193 187 193 175 201 196 198 201 204 196 195 195 199 194 201 218 223 227 231 252 280 304 326
223 221 172 191 179 162 176 168 132 48 263 200 184 261 211 179 152 179 182 190 197 194 201 200 194 195 191 183 201 189 198 199 194 206 209 206 201 196 211 202 212 231 234 229 242 251 284 319 326
178 156 165 87 83 149 176 163 152 69 15 69 177 231 177 159 138 162 157 159 182 192 198 196 203 204 194 183 197 200 199 208 204 206 214 211 214 209 220 220 220 223 233 239 241 260 287 296 309
230 152 121 84 91 82 162 178 141 107 58 37 14 134 147 143 141 133 163 168 170 167 183 191 203 206 201 195 202 201 205 211 221 214 219 219 216 217 225 233 233 232 234 244 259 272 282 295 300
223 184 158 124 97 71 109 161 151 124 141 73 63 91 108 138 145 138 149 166 162 169 180 181 180 192 200 201 205 211 213 218 222 221 222 225 225 228 233 236 241 242 244 256 263 269 278 280 284
195 175 131 131 121 126 222 152 186 143 135 95 115 79 81 110 147 138 145 145 149 152 158 180 190 195 204 207 211 213 216 218 230 237 233 226 225 230 228 229 234 235 242 247 259 261 266 267 271
164 134 133 141 144 131 173 96 127 143 171 150 102 102 98 144 142 146 147 145 142 158 182 197 194 194 203 207 210 209 218 213 223 225 228 208 208 213 218 225 234 241 245 249 254 255 259 261 264
146 123 108 79 152 88 163 103 174 145 185 143 109 116 128 114 135 149 153 178 172 163 172 183 204 208 206 205 207 203 210 215 218 216 230 234 223 217 235 260 256 255 254 278 278 274 267 266 270
144 197 105 101 60 76 132 82 92 92 49 149 139 125 132 128 116 128 145 149 165 181 182 184 192 190 187 206 209 206 210 240 247 252 245 244 228 241 286 261 261 262 253 261 263 266 268 271 273
151 19 9 111 132 108 5 115 104 82 90 84 126 130 130 125 119 116 124 132 123 164 172 192 192 200 210 221 230 236 239 260 264 262 262 260 248 235 236 250 254 264 257 254 256 262 266 267 266
230 82 293 100 45 88 160 102 116 126 116 124 130 146 147 130 125 119 114 104 99 131 133 149 168 175 194 238 249 249 244 242 248 262 274 257 244 242 257 256 256 250 248 254 258 260 264 266 263
50 32 48 18 98 96 213 117 98 176 139 136 138 162 174 177 147 135 113 98 89 85 113 145 153 148 159 178 197 211 224 231 236 242 243 242 232 230 237 232 254 241 243 257 263 258 259 260 259
13 26 32 101 51 125 140 76 17 58 136 147 121 148 172 190 190 183 162 133 104 72 65 77 137 151 155 185 196 227 233 227 226 229 232 236 244 249 246 234 230 241 257 269 259 250 250 240 233
26 35 15 52 302 28 79 82 58 68 76 112 117 128 133 138 163 180 214 252 281 281 246 4 14 15 23 208 216 239 252 254 242 237 236 233 239 242 238 235 247 262 271 263 227 219 207 219 229
Wind_Speed_850mb
9 11 7 10 7 10 23 24 26 21 14 28 36 8 8 11 10 13 45 23 40 40 56 49 40 35 33 32 31 29 31 37 38 37 36 36 34 37 41 38 28 21 18 12 14 19 26 28 29
11 8 9 9 10 19 19 31 37 21 14 17 25 17 22 6 17 35 42 33 41 46 56 49 39 33 33 34 32 33 36 41 39 36 35 34 32 32 31 26 17 12 6 8 12 20 25 27 29
27 4 4 7 16 27 19 30 32 27 18 8 14 12 27 14 21 55 29 49 41 46 53 47 38 34 34 37 36 38 39 40 40 35 35 31 27 24 20 19 16 12 13 13 16 20 23 24 25
14 9 11 12 28 28 31 34 11 17 33 28 29 13 12 23 21 24 59 55 39 44 49 45 38 36 38 41 41 40 41 42 39 36 31 28 28 25 18 15 9 4 8 14 16 18 19 20 21
14 11 2 14 33 26 33 46 8 17 26 24 29 3 22 26 26 43 57 49 47 47 43 44 39 39 43 44 43 41 41 40 36 36 30 23 17 16 13 10 11 8 11 18 19 18 17 18 17
17 7 6 31 28 35 29 52 10 23 14 42 38 32 14 12 30 53 52 48 47 52 45 45 42 44 44 44 42 41 40 39 36 32 25 18 15 14 16 18 14 15 11 18 18 17 15 14 14
13 9 22 27 29 38 39 20 18 21 8 10 17 7 16 10 43 55 52 51 52 48 49 49 48 46 44 41 42 40 37 41 34 24 18 13 12 15 17 21 19 12 17 17 16 14 12 10 11
31 7 32 29 29 40 44 37 37 25 14 26 17 9 10 43 50 54 59 56 51 51 51 52 53 50 47 43 43 40 39 35 26 20 15 13 13 14 16 19 15 20 20 17 14 12 9 8 8
31 17 19 35 47 35 44 16 43 13 14 14 11 14 18 40 57 62 67 50 46 35 47 53 55 52 48 46 41 38 33 28 23 19 14 11 13 15 15 16 15 18 16 14 11 8 6 5 6
17 20 36 15 38 37 53 16 28 13 18 17 22 20 23 43 65 72 75 63 55 52 48 51 54 51 47 47 44 39 35 29 25 19 16 12 11 12 15 14 15 14 12 9 6 4 3 3 6
27 34 10 40 58 39 51 47 54 10 12 21 36 41 52 54 64 66 72 67 66 61 54 49 55 49 46 45 46 42 37 32 26 21 24 22 20 17 14 11 13 13 10 8 5 2 0 4 2
22 49 41 26 21 17 20 37 44 21 8 12 14 44 36 33 61 70 67 71 65 64 64 48 59 49 46 41 46 41 40 33 26 23 28 34 27 20 13 5 10 11 11 4 3 6 7 6 4
53 33 62 33 33 20 17 27 25 33 23 8 3 43 37 48 55 58 60 65 68 64 62 50 57 59 47 44 45 43 35 32 21 22 24 26 21 23 18 10 5 5 7 7 4 5 8 7 7
28 50 52 50 30 33 15 21 15 21 36 5 6 30 34 46 53 52 53 57 74 65 75 68 56 52 58 48 49 43 36 30 24 22 24 24 19 23 25 23 18 14 13 7 7 6 7 6 9
45 25 24 44 44 15 23 25 11 19 22 53 2 23 32 36 44 59 55 58 66 64 64 71 67 61 53 51 48 39 37 30 27 25 25 27 22 20 19 17 20 16 12 12 6 3 3 4 4
22 20 42 33 36 21 32 30 21 20 26 28 36 23 34 37 42 49 54 44 59 57 58 59 71 67 55 43 50 38 36 31 28 25 28 27 24 19 18 18 12 13 11 9 5 2 4 9 11
19 13 13 36 47 19 22 14 6 18 19 24 32 34 43 40 37 45 43 49 56 57 57 54 52 53 49 38 44 43 29 37 30 31 26 27 23 17 13 16 15 11 10 5 4 4 9 9 10
11 15 24 23 40 32 37 18 8 7 7 39 33 35 38 33 32 40 41 33 42 45 47 51 49 46 45 38 27 47 37 41 34 32 28 25 24 20 17 17 14 11 9 7 6 5 4 6 8
19 15 11 4 11 34 39 21 13 17 10 18 35 24 28 37 32 37 43 46 35 36 35 41 48 46 44 49 39 37 42 38 38 35 31 28 28 24 23 20 18 15 10 9 10 9 8 8 10
27 22 9 14 18 12 20 25 17 16 8 21 24 27 23 21 28 30 38 35 40 40 38 40 43 43 46 53 47 38 41 40 38 37 35 35 25 25 24 22 21 15 15 14 12 13 13 13 13
21 28 21 11 20 23 20 8 20 6 16 14 25 36 24 24 26 26 26 32 34 38 38 44 39 35 39 40 48 47 43 41 41 42 38 35 31 26 24 21 18 18 18 17 17 17 18 19 20
17 29 28 35 11 8 7 10 17 14 13 9 23 23 18 16 26 28 27 23 27 32 30 42 39 35 37 40 44 45 47 40 38 26 34 33 25 23 21 21 22 24 23 25 24 23 26 27 30
5 34 32 38 17 18 10 9 4 31 17 18 24 26 8 10 17 29 26 24 26 24 22 21 29 35 38 38 33 28 32 34 23 23 25 32 33 29 28 28 30 30 31 32 32 33 36 36 38
32 29 26 11 10 6 14 5 5 8 12 22 24 31 19 16 16 14 29 40 28 21 16 16 21 23 31 33 38 32 28 33 35 34 36 32 35 35 29 32 39 41 39 30 39 40 41 41 41
27 7 7 5 5 6 23 13 9 13 16 17 32 34 27 27 22 18 13 17 24 28 32 28 26 24 20 20 26 33 26 27 31 38 37 28 29 29 24 22 36 40 43 41 44 47 40 40 39
17 10 3 9 8 8 9 6 6 13 19 23 36 36 25 31 27 22 18 17 19 21 24 28 22 20 23 20 22 33 31 34 36 36 35 39 39 39 41 41 40 38 36 36 33 34 36 37 36
6 5 7 9 7 9 8 9 10 11 12 23 25 25 21 28 33 25 22 24 11 17 23 18 20 21 18 25 35 26 43 64 58 52 33 33 34 35 35 32 33 29 28 30 31 32 34 35 31
11 4 6 7 7 8 5 9 7 10 11 11 19 19 20 18 23 25 26 26 18 20 13 10 13 16 17 17 16 17 20 24 27 32 30 25 24 27 31 30 32 30 28 31 31 30 29 28 26
9 7 8 6 4 5 7 6 9 12 11 11 18 17 19 18 16 15 10 9 8 9 11 7 6 12 15 12 13 16 19 24 23 24 27 26 25 24 24 22 24 22 21 24 23 21 19 16 12
11 5 11 4 7 3 6 7 9 12 17 26 26 22 17 13 9 10 10 8 7 5 5 8 14 10 1 6 10 14 19 23 22 25 28 23 22 21 17 15 14 18 17 19 14 11 10 7 8
Wind_Direction_850mb
30 91 101 221 231 235 226 236 264 273 269 230 219 297 278 284 356 127 141 162 186 174 170 164 164 163 161 160 155 151 145 142 134 124 125 129 127 121 126 130 125 117 100 64 54 80 103 99 97
330 182 247 252 235 217 228 234 240 248 253 257 215 223 270 87 96 132 161 172 190 171 165 162 163 163 161 159 155 150 149 145 137 126 121 133 133 139 130 130 128 120 106 84 93 95 97 98 95
242 351 244 224 235 233 223 240 242 216 125 215 187 193 241 80 116 145 165 179 181 167 165 162 162 162 161 159 153 151 151 152 143 130 122 128 134 144 136 122 115 97 91 116 116 106 98 97 96
233 242 260 245 236 227 240 242 315 191 178 180 188 174 116 102 133 164 153 179 168 167 168 162 161 162 160 157 155 152 150 149 146 136 130 125 128 130 135 137 143 124 112 125 118 109 103 99 96
198 136 227 244 242 240 236 250 265 274 171 186 219 177 123 121 153 140 172 169 170 167 164 162 159 159 156 157 155 153 153 152 153 145 140 138 141 145 153 159 156 143 153 139 126 116 103 99 93
165 154 209 240 242 245 244 245 230 264 242 194 204 163 184 170 149 145 175 164 172 171 166 161 158 159 157 158 157 158 157 158 154 152 151 155 166 182 188 167 155 160 151 134 129 122 112 100 90
231 159 214 232 248 222 238 220 229 248 247 297 167 229 144 228 143 163 166 167 173 174 171 162 159 159 161 162 161 161 161 159 159 163 166 174 178 178 182 179 161 166 146 134 128 123 113 94 80
202 220 229 214 251 249 230 204 222 224 229 220 263 94 141 217 169 163 158 165 174 178 172 164 162 161 164 161 158 158 158 165 171 173 177 181 178 178 166 163 161 137 137 137 135 130 112 91 72
203 223 228 205 224 257 242 209 218 202 231 154 184 124 63 184 163 155 160 160 168 166 172 167 165 164 168 169 167 167 171 176 178 177 174 177 164 152 170 157 146 142 144 143 137 125 104 83 66
215 212 224 194 213 240 269 263 193 178 232 151 112 128 168 193 158 165 168 166 171 170 171 171 166 165 171 176 175 177 175 176 177 178 166 146 136 136 149 163 163 155 149 144 139 124 99 66 50
200 237 198 219 226 240 271 287 239 177 219 205 170 158 157 172 168 173 173 169 168 166 172 177 163 168 174 180 179 179 178 180 178 174 160 140 172 184 190 194 171 168 159 153 142 114 166 356 228
224 230 219 213 193 222 240 276 261 168 158 354 238 183 172 190 180 178 179 178 172 172 170 179 165 173 183 181 185 184 185 187 184 173 170 173 196 206 178 132 166 159 159 121 31 339 315 309 327
235 250 212 221 192 201 294 264 269 204 218 300 244 175 187 188 186 181 181 182 177 179 169 173 173 173 178 191 187 188 187 184 191 185 183 183 183 158 162 163 188 154 168 190 246 281 321 323 329
251 224 228 188 200 211 241 258 289 238 210 152 201 196 178 187 187 183 173 185 186 179 177 170 175 180 185 194 185 187 189 184 194 190 182 167 177 167 172 186 193 188 223 216 222 253 308 335 329
257 225 227 184 155 172 185 259 228 267 198 216 273 223 204 204 192 184 181 189 191 198 191 182 176 173 192 198 186 188 186 186 199 194 182 171 188 178 173 183 185 195 208 213 236 272 333 28 284
231 254 207 196 170 177 156 230 235 216 179 195 204 253 220 196 192 190 184 188 193 193 192 193 185 186 189 185 184 182 192 192 200 202 193 186 189 187 178 183 184 189 217 209 192 232 249 286 313
208 269 205 175 175 155 160 182 323 171 193 182 184 253 216 191 185 181 192 199 197 199 191 190 194 192 193 187 193 175 201 196 198 201 204 196 195 195 199 194 201 218 223 227 231 252 280 304 326
223 221 172 191 179 162 176 168 132 48 263 200 184 261 211 179 152 179 182 190 197 194 201 200 194 195 191 183 201 189 198 199 194 206 209 206 201 196 211 202 212 231 234 229 242 251 284 319 326
178 156 165 87 83 149 176 163 152 69 15 69 177 231 177 159 138 162 157 159 182 192 198 196 203 204 194 183 197 200 199 208 204 206 214 211 214 209 220 220 220 223 233 239 241 260 287 296 309
230 152 121 84 91 82 162 178 141 107 58 37 14 134 147 143 141 133 163 168 170 167 183 191 203 206 201 195 202 201 205 211 221 214 219 219 216 217 225 233 233 232 234 244 259 272 282 295 300
223 184 158 124 97 71 109 161 151 124 141 73 63 91 108 138 145 138 149 166 162 169 180 181 180 192 200 201 205 211 213 218 222 221 222 225 225 228 233 236 241 242 244 256 263 269 278 280 284
195 175 131 131 121 126 222 152 186 143 135 95 115 79 81 110 147 138 145 145 149 152 158 180 190 195 204 207 211 213 216 218 230 237 233 226 225 230 228 229 234 235 242 247 259 261 266 267 271
164 134 133 141 144 131 173 96 127 143 171 150 102 102 98 144 142 146 147 145 142 158 182 197 194 194 203 207 210 209 218 213 223 225 228 208 208 213 218 225 234 241 245 249 254 255 259 261 264
146 123 108 79 152 88 163 103 174 145 185 143 109 116 128 114 135 149 153 178 172 163 172 183 204 208 206 205 207 203 210 215 218 216 230 234 223 217 235 260 256 255 254 278 278 274 267 266 270
144 197 105 101 60 76 132 82 92 92 49 149 139 125 132 128 116 128 145 149 165 181 182 184 192 190 187 206 209 206 210 240 247 252 245 244 228 241 286 261 261 262 253 261 263 266 268 271 273
151 19 9 111 132 108 5 115 104 82 90 84 126 130 130 125 119 116 124 132 123 164 172 192 192 200 210 221 230 236 239 260 264 262 262 260 248 235 236 250 254 264 257 254 256 262 266 267 266
230 82 293 100 45 88 160 102 116 126 116 124 130 146 147 130 125 119 114 104 99 131 133 149 168 175 194 238 249 249 244 242 248 262 274 257 244 242 257 256 256 250 248 254 258 260 264 266 263
50 32 48 18 98 96 213 117 98 176 139 136 138 162 174 177 147 135 113 98 89 85 113 145 153 148 159 178 197 211 224 231 236 242 243 242 232 230 237 232 254 241 243 257 263 258 259 260 259
13 26 32 101 51 125 140 76 17 58 136 147 121 148 172 190 190 183 162 133 104 72 65 77 137 151 155 185 196 227 233 227 226 229 232 236 244 249 246 234 230 241 257 269 259 250 250 240 233
26 35 15 52 302 28 79 82 58 68 76 112 117 128 133 138 163 180 214 252 281 281 246 4 14 15 23 208 216 239 252 254 242 237 236 233 239 242 238 235 247 262 271 263 227 219 207 219 229